This is the latest recevied weather packets stored in our database for station/object KC0UFP. If no packets are shown the sender has not sent any weather packets the latest 10 day(s).
| Time | Temp. | Humidity | Pressure | Rain* | Wind** | Luminosity | Snow |
|---|---|---|---|---|---|---|---|
| 1777910629 | 25° C | 40% | 1011.1 hPa | 0 mm | - | 892 W/m² | - |
| 1777910326 | 25° C | 42% | 1011.4 hPa | 0 mm | - | 883 W/m² | - |
| 1777910023 | 25° C | 42% | 1011.4 hPa | 0 mm | - | 841 W/m² | - |
| 1777909720 | 24.44° C | 43% | 1011.5 hPa | 0 mm | - | 894 W/m² | - |
| 1777909417 | 24.44° C | 47% | 1011.4 hPa | 0 mm | - | 875 W/m² | - |
| 1777909116 | 24.44° C | 44% | 1011.5 hPa | 0 mm | - | 860 W/m² | - |
| 1777908813 | 24.44° C | 45% | 1011.6 hPa | 0 mm | - | 845 W/m² | - |
| 1777908509 | 24.44° C | 46% | 1011.4 hPa | 0 mm | - | 838 W/m² | - |
| 1777908206 | 23.89° C | 47% | 1011.4 hPa | 0 mm | - | 815 W/m² | - |
| 1777907902 | 23.89° C | 48% | 1011.7 hPa | 0 mm | - | 791 W/m² | - |
| 1777907598 | 23.89° C | 50% | 1011.6 hPa | 0 mm | - | 764 W/m² | - |
| 1777907294 | 22.78° C | 52% | 1011.7 hPa | 0 mm | - | 756 W/m² | - |
| 1777906991 | 22.78° C | 52% | 1011.5 hPa | 0 mm | - | 696 W/m² | - |
| 1777906689 | 22.78° C | 52% | 1011.6 hPa | 0 mm | - | 733 W/m² | - |
| 1777906385 | 22.78° C | 54% | 1011.9 hPa | 0 mm | - | 712 W/m² | - |
| 1777906081 | 22.22° C | 55% | 1011.9 hPa | 0 mm | - | 687 W/m² | - |
| 1777905777 | 22.22° C | 55% | 1011.9 hPa | 0 mm | - | 653 W/m² | - |
| 1777905475 | 22.22° C | 55% | 1011.8 hPa | 0 mm | - | 655 W/m² | - |
| 1777905172 | 22.22° C | 56% | 1012 hPa | 0 mm | - | 597 W/m² | - |
| 1777904870 | 22.22° C | 58% | 1012.1 hPa | 0 mm | - | 625 W/m² | - |
| 1777904566 | 21.67° C | 58% | 1011.9 hPa | 0 mm | - | 566 W/m² | - |
| 1777904263 | 21.11° C | 59% | 1012.1 hPa | 0 mm | - | 578 W/m² | - |
| 1777903961 | 20.56° C | 62% | 1012.2 hPa | 0 mm | - | 516 W/m² | - |
| 1777903657 | 20.56° C | 63% | 1012.1 hPa | 0 mm | - | 490 W/m² | - |
| 1777903353 | 20° C | 65% | 1012.1 hPa | 0 mm | - | 468 W/m² | - |
* Rain latest hour (hover to see other rain measurements)
** Current wind speed in m/s (hover to see current wind gust speed)